SCP
0 0 0 0 0 0 0 0 0 0 0 0 0 0 0 0 0 0 0 0 0 0 0 0 0 0 0 0 0 0 0 0 0 0 0 0 0 0 0 0 0 0 0
0 0 0 0 0 0 0 0 0 0 0 0 0 0 0 0 0 0 0 0 0 0 0 0 0 0 0 0 0 0 0 0 0 0 0 0 0 0 0 0 0 0 0
0 0 0 0 0 0 0 0 0 0 0 0 0 0 0 0 0 0 0 0 0 0 0 0 0 0 0 0 0 0 0 0 0 0 0 0 0 0 0 0 0 0 0
0 0 0 0 0 0 0 0 0 0 0 0 0 0 0 0 0 0 0 0 0 0 0 0 0 0 0 0 0 0 0 0 0 0 0 0 0 0 0 0 0 0 0
0 0 0 0 0 0 0 0 0 0 0 0 0 0 0 0 0 0 0 0 0 0 0 0 0 0 0 0 0 0 0 0 0 0 0 0 0 0 0 0 0 0 0
0 0 0 0 0 0 0 0 0 0 0 0 0 0 0 0 0 0 0 0 0 0 0 0 0 0 0 0 0 0 0 0 0 0 0 0 0 0 0 0 0 0 0
0 0 0 0 0 0 0 0 0 0 0 0 0 0 0 0 0 0 0 0 0 0 0 0 0 0 0 0 0 0 0 0 0 0 0 0 0 0 0 0 0 0 0
0 0 0 0 0 0 0 0 0 0 0 0 0 0 0 0 0 0 0 0 0 0 0 0 0 0 0 0 0 0 0 0 0 0 0 0 0 0 0 0 0 0 0
0 0 0 0 0 0 0 0 0 0 0 0 0 0 0 0 0 0 0 0 0 0 0 0 0 0 0 0 0 0 0 0 0 0 0 0 0 0 0 0 0 0 0
0 0 0 0 0 0 0 0 0 0 0 0 0 0 0 0 0 0 0 0 0 0 0 0 0 0 0 0 0 0 0 0 0 0 0 0 0 0 0 0 0 0 0
0 0 0 0 0 0 0 0 0 0 0 0 0 0 0 0 0 0 0 0 0 0 0 0 0 0 0 0 0 0 0 0 0 0 0 0 0 0 0 0 0 0 0
0 0 0 0 0 0 0 0 0 0 0 0 0 0 0 0 0 0 0 0 0 0 0 0 0 0 0 0 0 0 0 0 0 0 0 0 0 0 0 0 0 0 0
0 0 0 0 0 0 0 0 0 0 0 0 0 0 0 0 0 0 0 0 0 0 0 0 0 0 0 0 0 0 0 0 0 0 0 0 0 0 0 0 0 0 0
0 0 0 0 0 0 0 0 0 0 0 0 0 0 0 0 0 0 0 0 0 0 0 0 0 0 0 0 0 0 0 0 0 0 0 0 0 0 0 0 0 0 0
0 0 0 0 0 0 0 0 0 0 0 0 0 0 0 0 0 0 0 0 0 0 0 0 0 0 0 0 0 0 0 0 0 0 0 0 0 0 0 0 0 0 0
0 0 0 0 0 0 0 0 0 0 0 0 0 0 0 0 0 0 0 0 0 0 0 0 0 0 0 0 0 0 0 0 0 0 0 0 0 0 0 0 0 0 0
0 0 0 0 0 0 0 0 0 0 0 0 0 0 0 0 0 0 0 0 0 0 0 0 0 0 0 0 0 0 0 0 0 0 0 0 0 0 0 0 0 0 0
0 0 0 0 0 0 0 0 0 0 0 0 0 0 0 0 0 0 0 0 0 0 0 0 0 0 0 0 0 0 0 0 0 0 0 0 0 0 0 0 0 0 0
0 0 0 0 0 0 0 0 0 0 0 0 0 0 0 0 0 0 0 0 0 0 0 0 0 0 0 0 0 0 0 0 0 0 0 0 0 0 0 0 0 0 0
0 0 0 0 0 0 0 0 0 0 0 0 0 0 0 0 0 0 0 0 0 0 0 0 0 0 0 0 0 0 0 0 0 0 0 0 0 0 0 0 0 0 0
1 1 1 0 1 0 0 0 0 0 0 0 0 0 0 0 0 0 0 0 0 0 0 0 0 0 0 0 0 0 0 0 0 0 0 0 0 0 0 0 0 0 0
1 1 1 1 1 1 0 0 0 0 0 0 0 0 0 0 0 0 0 0 0 0 0 0 0 0 0 0 0 0 0 0 0 0 0 0 0 0 0 0 0 0 0
1 1 1 1 1 1 1 0 0 0 0 0 0 0 0 0 0 0 0 0 0 0 0 0 0 0 0 0 0 0 0 0 0 0 0 0 0 0 0 0 0 0 0
1 1 1 1 1 1 1 0 0 0 0 0 0 0 0 0 0 0 0 0 0 0 0 0 0 0 0 0 0 0 0 0 0 0 0 0 0 0 0 0 0 0 0
1 1 1 1 1 1 0 0 0 0 0 0 0 0 0 0 0 0 0 0 0 0 0 0 0 0 0 0 0 0 0 0 0 0 0 0 0 0 0 0 0 0 0
1 1 1 1 1 1 0 0 0 0 0 0 0 0 0 0 0 0 0 0 0 0 0 0 0 0 0 0 0 0 0 0 0 0 0 0 0 0 0 0 0 0 0
Wind_Speed
2 2 1 1 1 1 2 2 2 2 2 2 3 4 4 4 4 3 3 11 11 11 11 11 11 11 11 10 10 9 9 9 8 8 8 8 8 8 8 8 8 8 8
2 2 2 2 2 2 2 2 3 2 2 2 3 3 4 4 4 4 3 6 11 10 10 11 11 11 11 11 10 10 10 9 8 8 8 8 8 8 8 8 8 9 8
2 2 2 1 1 2 2 2 2 1 2 2 2 3 3 4 4 4 4 3 4 8 10 10 10 10 10 10 10 10 9 9 8 8 8 8 9 9 9 9 9 9 9
2 2 2 1 2 2 2 2 2 1 1 1 1 2 2 3 4 4 4 4 3 4 7 10 10 9 10 9 10 9 9 9 8 8 8 8 8 8 9 9 9 8 8
2 2 1 1 1 2 2 2 2 2 2 1 2 2 2 2 3 4 4 4 4 4 3 6 9 9 9 9 9 9 9 9 8 8 9 9 9 9 8 9 8 8 8
2 2 1 1 2 2 1 1 2 1 2 2 1 1 1 2 2 3 4 4 4 6 5 5 4 6 9 10 9 9 9 9 9 9 10 10 9 9 8 9 9 9 9
2 2 1 1 2 2 2 2 2 1 1 1 2 1 1 0 1 2 2 3 4 5 4 5 4 3 3 7 8 9 9 10 10 10 10 10 10 9 9 9 9 9 9
2 3 2 2 2 2 2 2 2 1 1 1 2 1 1 3 2 2 2 3 4 3 4 5 4 5 4 3 4 8 9 9 10 10 10 10 10 10 9 9 9 9 10
2 2 2 2 2 2 2 2 2 3 1 0 2 3 2 2 2 2 2 2 3 3 4 4 5 5 5 3 3 6 8 8 8 9 10 10 9 8 7 8 8 9 9
2 2 2 2 2 1 1 1 1 2 2 1 1 1 2 3 2 1 2 2 2 2 3 3 3 3 4 3 4 6 7 7 7 7 7 7 7 7 8 8 8 8 8
1 2 2 2 2 1 1 1 1 1 2 2 1 1 1 0 1 2 1 2 2 2 2 3 2 2 3 3 3 5 6 7 6 5 5 5 6 7 7 7 7 8 7
0 1 2 1 2 1 2 1 1 1 1 2 1 1 2 1 1 2 2 2 2 2 1 1 2 2 2 3 4 5 7 7 6 6 5 5 6 6 6 6 6 6 6
1 1 1 1 1 1 2 2 1 1 1 1 1 1 1 2 2 2 2 1 1 2 2 1 1 1 2 2 3 5 6 6 6 6 6 6 5 5 5 5 6 6 6
2 2 2 2 2 2 2 2 1 1 1 1 1 1 1 1 1 2 2 2 1 2 2 2 1 2 2 2 3 5 3 6 6 7 7 6 6 6 5 5 5 5 5
2 2 2 2 2 2 2 2 1 1 1 1 1 1 1 1 1 1 2 2 3 1 3 2 2 2 2 1 2 2 2 5 6 7 7 7 6 6 6 5 5 4 4
2 2 2 2 2 2 2 2 1 1 1 1 1 1 1 1 1 1 1 1 2 3 2 3 2 2 1 1 1 1 2 4 5 6 6 6 6 7 6 6 5 5 5
3 3 3 3 2 2 2 2 2 1 1 1 1 1 2 1 1 1 1 1 1 2 2 3 2 1 1 1 2 1 2 2 2 4 5 6 6 6 6 6 5 5 5
2 3 2 2 2 2 2 2 3 2 2 2 2 2 2 2 2 2 1 1 2 2 2 2 2 1 2 2 1 1 1 1 2 3 4 5 5 5 6 6 6 5 5
2 2 2 2 2 2 2 3 3 3 3 3 3 3 3 2 2 2 2 1 1 1 1 1 2 2 2 1 1 2 2 2 2 2 3 4 4 5 5 6 6 6 6
3 2 2 2 2 3 3 3 3 3 3 3 3 3 3 4 4 3 2 2 2 1 1 1 2 2 2 2 1 1 2 2 2 2 2 2 3 4 5 5 5 5 5
3 3 2 2 2 2 3 3 3 3 2 2 2 3 3 4 4 4 3 3 2 2 1 1 1 1 2 1 2 2 2 2 2 1 1 2 1 2 3 4 5 5 5
3 3 3 3 3 3 3 4 3 2 2 3 3 3 3 3 3 4 3 4 4 3 3 2 2 2 3 3 2 1 1 1 2 2 1 2 1 2 3 3 5 6 6
3 3 3 3 3 4 4 5 5 3 3 3 3 2 2 2 1 1 2 2 2 3 4 4 4 4 3 3 2 2 2 2 3 3 1 2 2 3 3 4 5 6 6
3 3 3 4 3 4 5 5 5 3 3 3 3 3 3 2 2 2 2 1 1 2 2 3 4 4 4 3 3 3 3 2 3 2 1 2 2 3 3 3 5 6 6
3 3 3 3 3 4 4 4 4 2 2 3 3 3 3 3 2 3 3 2 1 2 3 2 2 3 3 3 1 0 0 0 2 3 1 1 2 2 2 2 3 5 6
3 3 3 3 3 3 3 3 3 2 2 3 2 3 3 3 3 4 4 3 2 3 2 2 2 2 2 2 2 2 3 2 2 3 2 1 1 0 2 2 2 2 3
Wind_Direction
145 156 167 172 180 171 167 166 179 178 178 175 170 157 156 154 158 164 175 180 180 185 187 186 189 191 193 196 198 202 207 211 213 211 212 214 216 217 216 215 216 215 214
146 147 150 161 169 172 165 164 173 168 162 157 169 167 161 161 165 167 166 182 186 190 193 196 199 201 202 204 207 208 211 214 215 215 213 214 215 218 220 221 220 220 220
153 146 138 154 185 169 152 143 143 138 155 160 171 175 163 168 171 172 175 182 193 200 202 203 204 205 209 212 213 212 214 216 217 218 218 221 221 222 225 226 227 225 223
147 137 144 181 184 158 145 139 133 138 157 170 182 199 181 173 177 179 179 185 191 203 208 208 208 207 212 215 215 214 217 219 220 221 224 226 226 228 229 232 231 227 226
143 136 145 164 143 131 133 155 147 155 166 184 201 199 192 188 186 187 188 191 197 207 204 209 210 214 218 220 219 219 223 225 225 226 229 232 231 231 229 229 229 228 228
148 138 140 148 133 122 124 138 149 154 173 182 192 179 204 197 190 196 199 195 198 208 200 204 209 222 222 225 226 225 229 234 236 236 236 236 234 232 231 229 229 228 228
149 143 135 142 143 145 163 161 152 148 163 142 104 22 341 286 206 213 210 198 208 208 199 205 206 211 221 222 224 226 230 232 233 234 237 237 237 235 232 230 228 228 228
156 157 146 154 156 145 145 156 149 149 180 146 134 111 356 345 323 247 218 211 220 207 205 207 201 205 216 220 223 225 230 235 238 239 241 243 237 237 233 229 228 229 229
153 148 145 152 154 155 175 187 163 158 176 239 150 149 157 221 292 316 256 230 223 214 215 208 203 208 212 216 223 232 233 236 241 241 240 240 237 237 239 238 235 235 234
159 158 148 152 148 149 166 184 153 151 148 187 257 189 175 166 162 307 323 293 252 226 227 221 218 215 213 211 217 224 227 227 235 241 241 239 229 230 234 240 243 244 239
163 157 148 146 141 147 157 151 132 144 158 162 167 164 135 86 141 155 266 307 315 280 233 215 210 210 206 207 216 225 223 220 220 228 234 239 237 235 233 235 242 243 240
170 147 141 138 144 146 154 164 161 153 160 157 163 158 157 159 183 167 207 257 285 290 278 242 217 215 206 208 221 225 222 219 215 218 224 231 235 234 232 233 240 244 247
189 209 167 150 148 159 161 160 155 162 170 168 181 191 179 194 178 163 163 223 269 289 308 301 256 236 213 204 227 235 230 218 219 224 227 229 231 230 227 228 235 241 245
200 197 181 177 177 176 174 163 158 188 156 170 186 184 188 227 196 178 175 176 261 310 313 287 298 260 249 222 238 236 236 222 224 229 231 231 233 233 230 230 231 237 240
197 192 189 185 186 178 177 163 165 198 175 179 195 188 203 236 224 215 188 175 173 233 276 270 275 274 267 241 250 229 239 233 229 228 230 230 227 224 227 228 226 230 236
195 181 185 187 191 188 182 166 171 192 169 215 201 177 210 236 228 224 202 192 176 183 238 259 254 260 269 291 270 242 244 251 241 231 225 225 225 222 225 227 226 229 237
189 194 196 190 190 189 184 174 192 184 188 224 231 201 225 224 216 224 209 197 193 171 214 274 285 287 289 292 307 285 261 242 250 237 224 221 225 224 226 229 232 231 234
196 199 192 186 184 186 188 190 208 208 204 221 236 224 235 221 220 231 206 211 215 196 182 244 283 291 273 260 258 265 280 275 250 248 231 227 227 228 231 232 232 230 230
195 204 190 191 198 196 195 201 201 208 212 222 227 225 231 208 221 229 221 220 226 219 181 194 263 272 277 271 286 291 287 276 271 259 241 243 242 239 233 231 231 229 233
193 206 205 211 215 213 208 204 197 205 215 226 227 224 222 213 214 210 210 214 206 192 195 204 258 274 267 271 254 277 298 295 285 287 271 252 253 243 234 230 231 230 232
202 203 207 221 224 222 221 203 204 210 212 231 241 237 234 228 224 213 205 195 187 184 198 219 256 280 280 273 258 255 276 293 285 267 268 260 244 250 245 241 238 236 232
206 201 214 222 227 236 230 210 204 213 213 219 235 245 246 244 231 212 193 185 179 184 198 210 238 245 259 250 249 251 258 299 294 280 242 268 237 250 250 241 240 228 224
204 208 216 215 230 243 234 221 213 206 211 219 225 231 247 249 208 197 179 169 217 223 200 195 214 235 238 234 223 244 236 233 248 254 217 275 261 259 261 254 243 235 228
203 211 220 224 232 248 234 223 216 212 218 227 224 216 223 233 217 186 188 197 246 269 247 226 220 234 236 232 213 221 230 253 273 271 194 248 262 262 273 264 244 232 236
210 213 219 221 228 253 236 223 207 204 227 243 238 229 217 222 212 162 166 189 265 298 289 275 247 259 259 260 230 151 289 299 284 275 240 218 260 279 277 265 261 246 246
209 208 221 224 220 240 241 216 185 192 226 250 255 246 221 209 207 184 183 189 212 256 280 319 320 316 294 285 261 198 193 209 249 270 262 216 254 298 309 291 279 275 261